Location: Molveno
(46.1500°N, 10.9667°E)
Time: 07:48:42
(UTC+00:00)

JB-3 - Pass Details

Date: 05 July 2020
Orbit: 525 x 590 km, 97.3° (Epoch: 06 August)

Event Time Altitude Azimuth Distance (km) Brightness Sun altitude
Rises 21:42:06 0° 10° (N) 2,692 8.8 -17.6°
Reaches altitude 10° 21:44:14 10° 8° (N) 1,790 7.8 -17.8°
Maximum altitude 21:48:04 71° 285° (WNW) 563 4.4 -18.0°
Enters shadow 21:49:45 31° 208° (SSW) 935 5.1 -18.1°
